Weather History for Rolla, ND

Change the Weather History Date:

Monday, November 5, 2012

  Actual Average (KRUG) Record (KRUG)
Temperature  
Mean Temperature 32 °F -  
Max Temperature 37 °F 41 °F 75 °F (1975)
Min Temperature 28 °F 23 °F -3 °F (1951)
Degree Days  
Heating Degree Days 32    
Moisture  
Dew Point 31 °F    
Average Humidity 98    
Maximum Humidity 100    
Minimum Humidity 81    
Precipitation  
Precipitation 0.03 in - - ()
Sea Level Pressure  
Sea Level Pressure 29.95 in    
Wind  
Wind Speed 11 mph (SW)    
Max Wind Speed 37 mph    
Max Gust Speed 46 mph    
Visibility 5 miles    
Events Fog , Rain    
Averages and records for this station are not official NWS values.
T = Trace of Precipitation, MM = Missing Value Source: NWS Daily Summary

Daily Weather History Graph

Daily Weather History Graph

Search for Another Location

Airport:

Trip Planner

Search our weather history database for the weather conditions in past years. The results will help you decide how hot, cold, wet, or windy it might be!

Date:

Astronomy

Nov. 05, 2012 Rise Set
Actual Time 7:32 AM CST 5:10 PM CST
Civil Twilight 6:59 AM CST 5:44 PM CST
Nautical Twilight 6:21 AM CST 6:21 PM CST
Astronomical Twilight 5:44 AM CST 6:58 PM CST
Moon 10:50 PM CST (11/5) 12:54 PM CST (11/5)
Length of Visible Light 10h 45m
Length of Day
9h 38m
Waning Gibbous, 62% of the Moon is Illuminated
Nov 5
Waning Gibbous
Nov 6
Last Quarter
Nov 13
New
Nov 20
First Quarter
Nov 28
Full

Hourly Weather History & Observations

Time (CST) Temp. Windchill Dew Point Humidity Pressure Visibility Wind Dir Wind Speed Gust Speed Precip Events Conditions
12:15 AM 28.4 °F 23.3 °F 28.4 °F 100% 30.21 in 6.0 mi SW 4.6 mph - N/A   Overcast
12:35 AM 28.4 °F 23.3 °F 28.4 °F 100% 30.21 in 5.0 mi SSW 4.6 mph - N/A   Overcast
12:55 AM 28.4 °F 22.2 °F 28.4 °F 100% 30.21 in 5.0 mi SW 5.8 mph - N/A   Overcast
1:15 AM 28.4 °F 23.3 °F 28.4 °F 100% 30.20 in 4.0 mi South 4.6 mph - N/A   Overcast
1:35 AM 28.4 °F 23.3 °F 28.4 °F 100% 30.20 in 4.0 mi SSW 4.6 mph - N/A   Overcast
1:55 AM 28.4 °F 24.6 °F 28.4 °F 100% 30.19 in 3.0 mi SSW 3.5 mph - N/A   Overcast
2:15 AM 28.4 °F 23.3 °F 28.4 °F 100% 30.19 in 2.5 mi SSW 4.6 mph - N/A   Overcast
2:35 AM 28.4 °F 23.3 °F 28.4 °F 100% 30.19 in 3.0 mi SSW 4.6 mph - N/A   Overcast
2:55 AM 28.4 °F 23.3 °F 28.4 °F 100% 30.19 in 4.0 mi SW 4.6 mph - N/A   Overcast
3:15 AM 28.4 °F 22.2 °F 28.4 °F 100% 30.19 in 5.0 mi SSW 5.8 mph - N/A   Overcast
3:35 AM 28.4 °F 22.2 °F 28.4 °F 100% 30.19 in 3.0 mi SSW 5.8 mph - N/A   Overcast
3:55 AM 28.4 °F 22.2 °F 28.4 °F 100% 30.18 in 1.2 mi SSW 5.8 mph - N/A   Overcast
4:15 AM 28.4 °F 22.2 °F 28.4 °F 100% 30.17 in 0.5 mi SSW 5.8 mph - N/A Fog Light Freezing Fog
4:35 AM 28.4 °F 20.4 °F 28.4 °F 100% 30.16 in 0.2 mi SSW 8.1 mph - N/A Fog Light Freezing Fog
4:55 AM 28.4 °F 21.2 °F 28.4 °F 100% 30.16 in 0.2 mi SSW 6.9 mph - N/A Fog Light Freezing Fog
5:15 AM 28.4 °F 21.2 °F 28.4 °F 100% 30.15 in 0.2 mi SSW 6.9 mph - N/A Fog Light Freezing Fog
5:35 AM 28.4 °F 21.2 °F 28.4 °F 100% 30.15 in 0.2 mi SSW 6.9 mph - N/A Fog Light Freezing Fog
5:55 AM 28.4 °F 20.4 °F 28.4 °F 100% 30.14 in 0.2 mi SSW 8.1 mph - N/A Fog Light Freezing Fog
6:15 AM 28.4 °F 20.4 °F 28.4 °F 100% 30.13 in 0.2 mi SSW 8.1 mph - N/A Fog Light Freezing Fog
6:35 AM 28.4 °F 20.4 °F 28.4 °F 100% 30.12 in 0.2 mi SSW 8.1 mph - N/A Fog Light Freezing Fog
6:55 AM 28.4 °F 20.4 °F 28.4 °F 100% 30.12 in 0.2 mi SSW 8.1 mph - N/A Fog Light Freezing Fog
7:15 AM 30.2 °F 21.9 °F 30.2 °F 100% 30.11 in 0.2 mi SSW 9.2 mph - N/A Fog Light Freezing Fog
7:35 AM 30.2 °F 23.4 °F 30.2 °F 100% 30.11 in 0.2 mi South 6.9 mph - N/A Fog Light Freezing Fog
7:55 AM 30.2 °F 21.9 °F 30.2 °F 100% 30.10 in 0.2 mi SSW 9.2 mph - N/A Fog Light Freezing Fog
8:15 AM 30.2 °F 21.9 °F 30.2 °F 100% 30.10 in 0.2 mi SSW 9.2 mph - N/A Fog Light Freezing Fog
8:35 AM 30.2 °F 21.9 °F 30.2 °F 100% 30.11 in 0.2 mi SSW 9.2 mph - N/A Fog Light Freezing Fog
8:55 AM 30.2 °F 21.9 °F 30.2 °F 100% 30.09 in 0.2 mi South 9.2 mph - N/A Fog Light Freezing Fog
9:15 AM 30.2 °F 20.8 °F 30.2 °F 100% 30.06 in 0.2 mi South 11.5 mph - N/A Fog Light Freezing Fog
9:35 AM 32.0 °F 23.0 °F 32.0 °F 100% 30.06 in 0.2 mi SSW 11.5 mph - N/A Fog Light Freezing Fog
9:55 AM 32.0 °F 23.6 °F 32.0 °F 100% 30.05 in 0.2 mi South 10.4 mph - N/A Rain Light Rain
10:15 AM 32.0 °F 21.2 °F 32.0 °F 100% 30.04 in 0.2 mi SSW 16.1 mph - N/A Fog Light Freezing Fog
10:35 AM 32.0 °F 22.1 °F 32.0 °F 100% 30.02 in 0.2 mi South 13.8 mph 18.4 mph N/A Rain Light Rain
10:55 AM 32.0 °F 22.1 °F 32.0 °F 100% 30.01 in 0.2 mi SSW 13.8 mph - N/A Fog Light Freezing Fog
11:15 AM 32.0 °F 22.1 °F 32.0 °F 100% 29.98 in 1.0 mi South 13.8 mph 21.9 mph N/A   Overcast
11:35 AM 32.0 °F 20.8 °F 32.0 °F 100% 29.98 in 2.0 mi SSW 17.3 mph - N/A   Overcast
11:55 AM 32.0 °F 20.1 °F 32.0 °F 100% 29.96 in 4.0 mi SSW 19.6 mph - N/A   Overcast
12:15 PM 32.0 °F 19.2 °F 32.0 °F 100% 29.94 in 3.0 mi SSW 23.0 mph 28.8 mph N/A   Overcast
12:35 PM 32.0 °F 19.5 °F 32.0 °F 100% 29.93 in 3.0 mi SSW 21.9 mph 25.3 mph N/A   Overcast
12:55 PM 32.0 °F 19.8 °F 32.0 °F 100% 29.92 in 4.0 mi SSW 20.7 mph 27.6 mph N/A   Overcast
1:15 PM 32.0 °F 19.5 °F 32.0 °F 100% 29.91 in 7.0 mi SSW 21.9 mph 25.3 mph N/A   Overcast
1:35 PM 32.0 °F 20.1 °F 32.0 °F 100% 29.90 in 6.0 mi SSW 19.6 mph - N/A   Overcast
1:55 PM 32.0 °F 19.8 °F 32.0 °F 100% 29.88 in 6.0 mi SSW 20.7 mph 25.3 mph N/A   Overcast
2:15 PM 32.0 °F 19.8 °F 32.0 °F 100% 29.86 in 8.0 mi SSW 20.7 mph - N/A   Overcast
2:35 PM 32.0 °F 20.5 °F 32.0 °F 100% 29.84 in 8.0 mi SSW 18.4 mph - N/A   Overcast
2:55 PM 32.0 °F 20.1 °F 32.0 °F 100% 29.81 in 5.0 mi SSW 19.6 mph 28.8 mph N/A Rain Light Rain
3:15 PM 32.0 °F 20.5 °F 32.0 °F 100% 29.79 in 3.0 mi SSW 18.4 mph 23.0 mph N/A Rain Light Rain
3:55 PM 32.0 °F 21.2 °F 32.0 °F 100% 29.77 in 5.0 mi South 16.1 mph 21.9 mph 0.02 in Rain Light Rain
4:15 PM 32.0 °F 21.2 °F 32.0 °F 100% 29.76 in 4.0 mi South 16.1 mph 23.0 mph N/A Rain Light Rain
4:35 PM 32.0 °F 19.2 °F 32.0 °F 100% 29.74 in 4.0 mi South 23.0 mph 27.6 mph 0.01 in Rain Light Rain
4:55 PM 32.0 °F 20.5 °F 32.0 °F 100% 29.74 in 5.0 mi SSW 18.4 mph 26.5 mph 0.01 in Rain Light Rain
5:15 PM 32.0 °F 21.2 °F 32.0 °F 100% 29.73 in 8.0 mi SSW 16.1 mph - N/A   Overcast
5:35 PM 32.0 °F 21.6 °F 32.0 °F 100% 29.73 in 6.0 mi SSW 15.0 mph - N/A   Overcast
5:55 PM 32.0 °F 21.6 °F 32.0 °F 100% 29.73 in 10.0 mi SSW 15.0 mph - N/A   Overcast
6:15 PM 32.0 °F 22.5 °F 32.0 °F 100% 29.73 in 5.0 mi SSW 12.7 mph - N/A   Overcast
6:35 PM 32.0 °F 22.5 °F 32.0 °F 100% 29.71 in 10.0 mi SSW 12.7 mph - N/A   Overcast
6:55 PM 33.8 °F 24.8 °F 33.8 °F 100% 29.71 in 10.0 mi SW 12.7 mph - N/A   Overcast
7:15 PM 33.8 °F 25.8 °F 33.8 °F 100% 29.70 in 10.0 mi SW 10.4 mph - N/A   Overcast
7:35 PM 33.8 °F 28.6 °F 33.8 °F 100% 29.69 in 10.0 mi SSW 5.8 mph - N/A   Overcast
7:55 PM 33.8 °F 29.6 °F 33.8 °F 100% 29.70 in 10.0 mi SW 4.6 mph - N/A   Overcast
8:15 PM 35.6 °F 27.5 °F 35.6 °F 100% 29.70 in 10.0 mi West 11.5 mph - N/A   Overcast
8:35 PM 37.4 °F 28.2 °F 37.4 °F 100% 29.70 in 10.0 mi WNW 16.1 mph 23.0 mph N/A   Mostly Cloudy
8:55 PM 37.4 °F 26.4 °F 37.4 °F 100% 29.70 in 10.0 mi NW 23.0 mph 28.8 mph N/A   Partly Cloudy
9:15 PM 37.4 °F 24.8 °F 37.4 °F 100% 29.70 in 10.0 mi NW 31.1 mph 38.0 mph N/A   Clear
9:35 PM 37.4 °F 23.8 °F 37.4 °F 100% 29.70 in 10.0 mi NW 36.8 mph 46.0 mph N/A   Partly Cloudy
9:55 PM 37.4 °F 23.8 °F 37.4 °F 100% 29.70 in 10.0 mi NW 36.8 mph 44.9 mph N/A   Clear
10:15 PM 37.4 °F 24.8 °F 32.0 °F 81% 29.71 in 10.0 mi NW 31.1 mph 41.4 mph N/A   Clear
10:35 PM 37.4 °F 25.2 °F 32.0 °F 81% 29.71 in 10.0 mi NW 28.8 mph 40.3 mph N/A   Clear
10:55 PM 37.4 °F 25.6 °F 32.0 °F 81% 29.72 in 10.0 mi NW 26.5 mph 34.5 mph N/A   Clear
11:15 PM 37.4 °F 25.6 °F 32.0 °F 81% 29.72 in 10.0 mi NW 26.5 mph 35.7 mph N/A   Clear
11:35 PM 37.4 °F 26.6 °F 32.0 °F 81% 29.72 in 10.0 mi WNW 21.9 mph 32.2 mph N/A   Clear
11:55 PM 37.4 °F 24.8 °F 32.0 °F 81% 29.73 in 10.0 mi NW 31.1 mph 41.4 mph N/A   Clear